• In Deutschland
  • Länderverzeichnis
  • Für 7 Tage
  • Wassertemperatur
  • Satellitenkarten
  • Wetterkarte
  • Widgets
  • user-avatar
    Anmelden

    Stündliche Wetter Bad Birnbach

    Heute, 17 Oktober, Dienstag

    Zeit Temperatur Niederschläge Wind Luftdruck Luftfeuchtigkeit
    00:00 +13°C° 0 mm 1 m/S 736 mmHg 85%
    01:00 +12°C° 0 mm 1 m/S 736 mmHg 84%
    02:00 +12°C° 0 mm 1 m/S 736 mmHg 84%
    03:00 +12°C° 0 mm 1 m/S 736 mmHg 84%
    04:00 +12°C° 0 mm 1 m/S 736 mmHg 84%
    05:00 +12°C° 0 mm 1 m/S 736 mmHg 84%
    06:00 +12°C° 0 mm 1 m/S 736 mmHg 83%
    07:00 +11°C° 0 mm 1 m/S 736 mmHg 83%
    08:00 +14°C° 0 mm 1 m/S 736 mmHg 77%
    09:00 +16°C° 0 mm 1 m/S 736 mmHg 70%
    10:00 +20°C° 0 mm 1 m/S 736 mmHg 64%
    11:00 +21°C° 0 mm 1 m/S 735 mmHg 61%
    12:00 +22°C° 0 mm 1 m/S 735 mmHg 59%
    13:00 +23°C° 0 mm 1 m/S 735 mmHg 57%
    14:00 +22°C° 0 mm 1 m/S 734 mmHg 61%
    15:00 +22°C° 0 mm 1 m/S 734 mmHg 66%
    16:00 +21°C° 0 mm 1 m/S 733 mmHg 71%
    17:00 +19°C° 0 mm 1 m/S 733 mmHg 75%
    18:00 +15°C° 0 mm 0 m/S 733 mmHg 80%
    19:00 +14°C° 0 mm 0 m/S 733 mmHg 84%
    20:00 +13°C° 0 mm 0 m/S 732 mmHg 85%
    21:00 +13°C° 0 mm 0 m/S 732 mmHg 85%
    22:00 +12°C° 0 mm 0 m/S 732 mmHg 86%
    23:00 +12°C° 0 mm 0 m/S 732 mmHg 86%

    Morgen, 18 Oktober, Mittwoch

    Zeit Temperatur Niederschläge Wind Luftdruck Luftfeuchtigkeit
    00:00 +12°C° 0 mm 0 m/S 731 mmHg 86%
    01:00 +11°C° 0 mm 0 m/S 731 mmHg 86%
    02:00 +11°C° 0 mm 0 m/S 731 mmHg 86%
    03:00 +11°C° 0 mm 0 m/S 731 mmHg 86%
    04:00 +12°C° 0 mm 1 m/S 730 mmHg 87%
    05:00 +11°C° 0 mm 1 m/S 730 mmHg 87%
    06:00 +11°C° 0 mm 1 m/S 730 mmHg 87%
    07:00 +11°C° 0 mm 1 m/S 730 mmHg 87%
    08:00 +13°C° 0 mm 1 m/S 730 mmHg 82%
    09:00 +15°C° 0 mm 1 m/S 730 mmHg 77%
    10:00 +18°C° 0 mm 1 m/S 730 mmHg 72%
    11:00 +19°C° 0 mm 1 m/S 730 mmHg 69%
    12:00 +20°C° 0 mm 1 m/S 729 mmHg 66%
    13:00 +21°C° 0 mm 1 m/S 729 mmHg 63%
    14:00 +21°C° 0 mm 1 m/S 729 mmHg 67%
    15:00 +20°C° 0 mm 1 m/S 729 mmHg 71%
    16:00 +18°C° 0 mm 0 m/S 728 mmHg 75%
    17:00 +16°C° 0 mm 0 m/S 729 mmHg 80%
    18:00 +14°C° 0 mm 0 m/S 729 mmHg 85%
    19:00 +12°C° 0 mm 0 m/S 729 mmHg 90%
    20:00 +12°C° 0 mm 0 m/S 729 mmHg 91%
    21:00 +12°C° 0 mm 0 m/S 729 mmHg 91%
    22:00 +11°C° 0 mm 0 m/S 729 mmHg 92%
    23:00 +11°C° 0 mm 0 m/S 729 mmHg 92%

    übermorgen, 19 Oktober, Donnerstag

    Zeit Temperatur Niederschläge Wind Luftdruck Luftfeuchtigkeit
    00:00 +11°C° 0 mm 0 m/S 729 mmHg 93%
    01:00 +10°C° 0 mm 0 m/S 729 mmHg 93%
    02:00 +10°C° 0 mm 0 m/S 729 mmHg 93%
    03:00 +10°C° 0 mm 0 m/S 729 mmHg 93%
    04:00 +9°C° 0 mm 0 m/S 729 mmHg 93%
    05:00 +9°C° 0 mm 0 m/S 729 mmHg 93%
    06:00 +9°C° 0 mm 0 m/S 729 mmHg 93%
    07:00 +10°C° 0 mm 1 m/S 729 mmHg 92%
    08:00 +12°C° 0 mm 1 m/S 729 mmHg 86%
    09:00 +14°C° 0 mm 1 m/S 729 mmHg 80%
    10:00 +16°C° 0 mm 1 m/S 729 mmHg 74%
    11:00 +19°C° 0 mm 1 m/S 729 mmHg 70%
    12:00 +20°C° 0 mm 1 m/S 729 mmHg 65%
    13:00 +21°C° 0 mm 1 m/S 729 mmHg 61%
    14:00 +20°C° 0 mm 1 m/S 728 mmHg 65%
    15:00 +20°C° 0 mm 1 m/S 728 mmHg 69%
    16:00 +19°C° 0 mm 1 m/S 728 mmHg 73%
    17:00 +18°C° 0 mm 1 m/S 728 mmHg 77%
    18:00 +15°C° 0 mm 1 m/S 728 mmHg 82%
    19:00 +13°C° 0 mm 1 m/S 728 mmHg 87%
    20:00 +13°C° 0 mm 1 m/S 728 mmHg 87%
    21:00 +12°C° 0 mm 1 m/S 729 mmHg 88%
    22:00 +12°C° 0 mm 1 m/S 729 mmHg 88%
    23:00 +11°C° 0 mm 1 m/S 729 mmHg 88%

    20 Oktober, Freitag

    Zeit Temperatur Niederschläge Wind Luftdruck Luftfeuchtigkeit
    00:00 +11°C° 0 mm 1 m/S 729 mmHg 89%
    01:00 +11°C° 0 mm 1 m/S 728 mmHg 89%
    02:00 +11°C° 0 mm 1 m/S 728 mmHg 88%
    03:00 +10°C° 0 mm 1 m/S 728 mmHg 88%
    04:00 +10°C° 0 mm 1 m/S 728 mmHg 88%
    05:00 +10°C° 0 mm 1 m/S 729 mmHg 88%
    06:00 +10°C° 0 mm 1 m/S 729 mmHg 87%
    07:00 +10°C° 0 mm 1 m/S 729 mmHg 87%
    08:00 +12°C° 0 mm 1 m/S 729 mmHg 80%
    09:00 +14°C° 0 mm 1 m/S 730 mmHg 74%
    10:00 +16°C° 0 mm 1 m/S 730 mmHg 68%
    11:00 +16°C° 0 mm 1 m/S 730 mmHg 66%
    12:00 +18°C° 0 mm 1 m/S 730 mmHg 64%
    13:00 +18°C° 0 mm 2 m/S 730 mmHg 62%
    14:00 +19°C° 0 mm 1 m/S 730 mmHg 66%
    15:00 +19°C° 0 mm 1 m/S 730 mmHg 69%
    16:00 +18°C° 0 mm 1 m/S 730 mmHg 73%
    17:00 +16°C° 0 mm 1 m/S 731 mmHg 78%
    18:00 +14°C° 0 mm 1 m/S 731 mmHg 82%
    19:00 +13°C° 0 mm 1 m/S 731 mmHg 87%
    20:00 +12°C° 0 mm 1 m/S 731 mmHg 86%
    21:00 +12°C° 0 mm 1 m/S 731 mmHg 86%
    22:00 +12°C° 0 mm 1 m/S 731 mmHg 86%
    23:00 +11°C° 0 mm 1 m/S 731 mmHg 86%

    21 Oktober, Samstag

    Zeit Temperatur Niederschläge Wind Luftdruck Luftfeuchtigkeit
    00:00 +11°C° 0 mm 1 m/S 731 mmHg 85%
    01:00 +11°C° 0 mm 1 m/S 730 mmHg 84%
    02:00 +11°C° 0 mm 1 m/S 730 mmHg 84%
    03:00 +10°C° 0 mm 1 m/S 730 mmHg 83%
    04:00 +10°C° 0 mm 1 m/S 730 mmHg 82%
    05:00 +10°C° 0 mm 1 m/S 729 mmHg 81%
    06:00 +10°C° 0 mm 1 m/S 729 mmHg 81%
    07:00 +10°C° 0 mm 1 m/S 729 mmHg 80%
    08:00 +12°C° 0 mm 1 m/S 729 mmHg 73%
    09:00 +14°C° 0 mm 1 m/S 729 mmHg 67%
    10:00 +18°C° 0 mm 1 m/S 729 mmHg 61%
    11:00 +19°C° 0 mm 1 m/S 729 mmHg 58%
    12:00 +20°C° 0 mm 1 m/S 728 mmHg 56%
    13:00 +21°C° 0 mm 1 m/S 728 mmHg 53%
    14:00 +21°C° 0 mm 1 m/S 728 mmHg 58%
    15:00 +20°C° 0 mm 1 m/S 728 mmHg 63%
    16:00 +19°C° 0 mm 1 m/S 727 mmHg 68%
    17:00 +18°C° 0 mm 1 m/S 728 mmHg 73%
    18:00 +16°C° 0 mm 1 m/S 728 mmHg 78%
    19:00 +14°C° 0 mm 1 m/S 729 mmHg 83%
    20:00 +14°C° 0,1 mm 1 m/S 729 mmHg 86%
    21:00 +14°C° 0,1 mm 1 m/S 729 mmHg 89%
    22:00 +14°C° 0,1 mm 1 m/S 729 mmHg 93%
    23:00 +13°C° 0,6 mm 2 m/S 729 mmHg 93%

    22 Oktober, Sonntag

    Zeit Temperatur Niederschläge Wind Luftdruck Luftfeuchtigkeit
    00:00 +13°C° 0,6 mm 2 m/S 729 mmHg 93%
    01:00 +13°C° 0,6 mm 2 m/S 729 mmHg 93%
    02:00 +12°C° 0,4 mm 2 m/S 729 mmHg 94%
    03:00 +12°C° 0,4 mm 2 m/S 729 mmHg 94%
    04:00 +10°C° 0,4 mm 2 m/S 729 mmHg 95%
    05:00 +10°C° 1 mm 2 m/S 729 mmHg 95%
    06:00 +9°C° 1 mm 2 m/S 729 mmHg 96%
    07:00 +9°C° 1 mm 2 m/S 729 mmHg 96%
    08:00 +9°C° 1,2 mm 2 m/S 729 mmHg 95%
    09:00 +9°C° 1,2 mm 2 m/S 729 mmHg 94%
    10:00 +9°C° 1,2 mm 2 m/S 729 mmHg 94%
    11:00 +9°C° 0,7 mm 2 m/S 729 mmHg 92%
    12:00 +9°C° 0,7 mm 2 m/S 729 mmHg 91%
    13:00 +9°C° 0,7 mm 2 m/S 729 mmHg 89%
    14:00 +9°C° 0,4 mm 2 m/S 729 mmHg 89%
    15:00 +9°C° 0,4 mm 2 m/S 729 mmHg 89%
    16:00 +9°C° 0,4 mm 2 m/S 729 mmHg 89%
    17:00 +9°C° 0,1 mm 2 m/S 729 mmHg 89%
    18:00 +8°C° 0,1 mm 3 m/S 729 mmHg 90%
    19:00 +7°C° 0,1 mm 3 m/S 730 mmHg 90%
    20:00 +7°C° 0 mm 3 m/S 730 mmHg 89%
    21:00 +6°C° 0 mm 4 m/S 730 mmHg 88%
    22:00 +6°C° 0 mm 4 m/S 730 mmHg 87%
    23:00 +6°C° 0,1 mm 4 m/S 730 mmHg 88%
    Mehr zeigen